FW7570 Weather Reports


Display with metric or nautical units.
time (UTC)temp
F
wind
direction
speed
MPH
gust
MPH
rain 1hr
in
rain 24hr
in
rain mn
in
humidity
%
barometer
mb
20260506051057 49 0 0.0 1.0 0.00 0.46 0.08 96 1005.7
20260506050557 49 0 0.0 1.0 0.00 0.46 0.08 96 1005.7
20260506050104 49 157 0.0 1.0 0.00 0.46 0.08 96 1005.6
20260506045056 49 0 0.0 1.0 0.00 0.46 0.08 96 1005.7
20260506044558 49 166 0.0 2.0 0.00 0.46 0.08 96 1005.7
20260506044057 49 144 0.0 2.0 0.00 0.46 0.08 96 1005.8
20260506043557 49 155 0.0 2.0 0.00 0.46 0.08 96 1005.8
20260506043057 49 0 0.0 3.0 0.00 0.46 0.08 96 1005.8
20260506042557 49 207 0.0 3.0 0.00 0.46 0.08 96 1005.8
20260506042057 49 153 0.0 2.0 0.00 0.46 0.08 96 1005.8
20260506041619 49 0 0.0 1.0 0.00 0.46 0.08 96 1005.7
20260506041056 49 0 0.0 1.0 0.00 0.46 0.08 96 1005.9
20260506040559 49 216 0.0 1.0 0.00 0.46 0.08 96 1005.9
20260506040104 49 0 0.0 1.0 0.00 0.46 0.08 96 1005.9
20260506035558 49 154 0.0 1.0 0.00 0.46 0.08 96 1006.0
20260506035056 49 0 0.0 1.0 0.01 0.46 0.08 96 1005.9
20260506034601 49 0 0.0 1.0 0.01 0.46 0.08 96 1005.8
20260506034056 49 0 0.0 1.0 0.01 0.46 0.08 96 1006.0
20260506033557 49 0 0.0 2.0 0.01 0.46 0.08 96 1005.9
20260506033055 49 156 0.0 2.0 0.01 0.46 0.08 96 1005.8
20260506032559 50 0 0.0 1.0 0.02 0.46 0.08 96 1005.9
20260506032100 49 0 0.0 0.0 0.02 0.46 0.08 96 1006.0
20260506031600 49 206 0.0 1.0 0.02 0.46 0.08 96 1005.9
20260506031056 49 0 0.0 1.0 0.02 0.45 0.07 96 1005.9
20260506030556 49 0 0.0 1.0 0.02 0.45 0.07 96 1005.9
20260506030059 50 156 0.0 1.0 0.03 0.45 0.07 96 1006.0
20260506025601 49 0 0.0 0.0 0.03 0.45 0.07 96 1006.0
20260506025057 49 0 0.0 1.0 0.03 0.44 0.07 96 1006.0
20260506024607 49 0 0.0 1.0 0.03 0.44 0.07 96 1006.0
20260506024057 49 0 0.0 1.0 0.03 0.44 0.07 96 1006.1
20260506023557 49 0 0.0 2.0 0.03 0.44 0.07 96 1006.1
20260506023105 49 173 0.0 2.0 0.03 0.44 0.07 96 1006.1
20260506022557 49 0 0.0 2.0 0.02 0.44 0.06 96 1006.2
20260506022057 49 0 0.0 3.0 0.03 0.44 0.06 96 1006.2
20260506021557 49 167 0.0 3.0 0.03 0.44 0.06 96 1006.4
20260506021057 50 0 0.0 0.0 0.02 0.43 0.05 96 1006.5
20260506020556 49 0 0.0 0.0 0.02 0.43 0.05 96 1006.5
20260506020110 50 0 0.0 1.0 0.01 0.42 0.04 96 1006.5
20260506015556 50 0 0.0 1.0 0.01 0.42 0.04 96 1006.6
20260506015056 50 0 0.0 1.0 0.00 0.41 0.03 96 1006.6
20260506014609 50 0 0.0 1.0 0.00 0.41 0.03 96 1006.6
20260506014056 50 175 0.0 1.0 0.00 0.41 0.03 96 1006.6
20260506013556 50 0 0.0 1.0 0.00 0.41 0.03 96 1006.7
20260506013056 50 0 0.0 1.0 0.00 0.41 0.03 96 1006.7
20260506012557 50 193 0.0 3.0 0.00 0.41 0.03 96 1006.7
20260506012056 50 0 0.0 3.0 0.00 0.40 0.03 96 1006.7
20260506011619 50 192 0.0 2.0 0.00 0.40 0.03 96 1006.8
20260506011056 50 0 0.0 1.0 0.00 0.40 0.03 96 1006.8
20260506010601 50 0 0.0 2.0 0.00 0.40 0.03 96 1006.7
20260506010056 50 0 0.0 2.0 0.00 0.40 0.03 96 1006.7
20260506005556 50 0 0.0 2.0 0.00 0.40 0.03 96 1006.8
20260506005056 50 0 0.0 1.0 0.00 0.40 0.03 96 1006.8
20260506004604 50 0 0.0 2.0 0.00 0.40 0.03 96 1006.8
20260506004056 50 0 0.0 2.0 0.00 0.40 0.03 96 1006.8
20260506003556 50 0 0.0 2.0 0.00 0.40 0.03 96 1006.8
20260506003057 50 162 0.0 2.0 0.00 0.40 0.03 96 1006.9
20260506002556 50 0 0.0 1.0 0.00 0.40 0.03 96 1007.0
20260506002053 50 0 0.0 1.0 0.00 0.40 0.03 96 1007.0
20260506001601 50 0 0.0 1.0 0.00 0.40 0.03 96 1007.0
20260506001056 50 0 0.0 2.0 0.01 0.40 0.03 96 1007.1
20260506000554 50 0 0.0 2.0 0.00 0.40 0.02 96 1007.2
20260506000121 50 215 0.0 2.0 0.00 0.40 0.02 96 1007.2
20260505235555 50 0 0.0 2.0 0.00 0.40 0.02 96 1007.3
20260505235054 50 229 0.0 1.0 0.00 0.40 0.02 96 1007.4
20260505234557 50 0 0.0 1.0 0.00 0.40 0.02 96 1007.4
20260505234055 50 0 0.0 2.0 0.00 0.40 0.02 96 1007.5
20260505233555 50 0 0.0 2.0 0.00 0.40 0.02 96 1007.4
20260505233100 50 162 0.0 1.0 0.01 0.40 0.02 96 1007.5
20260505232557 50 0 0.0 1.0 0.01 0.40 0.02 96 1007.5
20260505232055 50 0 0.0 1.0 0.01 0.40 0.02 96 1007.4
20260505231609 50 0 0.0 1.0 0.02 0.40 0.02 96 1007.5
20260505231056 50 0 0.0 1.0 0.01 0.39 0.01 96 1007.5
20260505230557 50 0 0.0 1.0 0.01 0.39 0.01 96 1007.5
20260505230108 50 0 0.0 0.0 0.01 0.39 0.01 96 1007.5
20260505225559 50 0 0.0 2.0 0.01 0.39 0.01 96 1007.6
20260505225057 50 0 0.0 2.0 0.01 0.39 0.01 96 1007.6
20260505224614 50 186 0.0 2.0 0.02 0.39 0.01 96 1007.6
20260505224059 50 221 0.0 2.0 0.02 0.39 0.01 96 1007.6
20260505223600 50 0 0.0 3.0 0.02 0.39 0.01 96 1007.7
20260505223054 50 151 0.0 3.0 0.01 0.38 0.00 96 1007.6
20260505222558 50 0 0.0 3.0 0.02 0.38 0.00 96 1007.7
20260505222053 50 0 0.0 1.0 0.02 0.38 0.00 96 1007.6
20260505221600 50 142 0.0 1.0 0.02 0.37 0.00 95 1007.8
20260505221055 50 176 0.0 1.0 0.02 0.37 0.00 96 1007.8
20260505220555 50 0 0.0 2.0 0.02 0.37 0.00 95 1007.7
20260505220057 50 168 0.0 2.0 0.03 0.37 0.00 95 1007.8
20260505215556 50 216 0.0 2.0 0.03 0.37 0.37 96 1007.7
20260505215056 50 0 0.0 2.0 0.03 0.37 0.37 95 1007.8
20260505214555 50 0 0.0 3.0 0.03 0.37 0.37 95 1007.9
20260505214057 50 0 0.0 3.0 0.03 0.37 0.37 95 1007.9
20260505213558 50 0 0.0 2.0 0.03 0.37 0.37 95 1008.0
20260505213055 50 0 0.0 2.0 0.03 0.37 0.37 95 1007.9
20260505212559 51 0 0.0 2.0 0.03 0.36 0.36 95 1008.0
20260505212053 50 0 0.0 2.0 0.03 0.36 0.36 95 1008.0
20260505211556 50 0 0.0 2.0 0.03 0.35 0.35 95 1008.0
20260505211056 50 0 0.0 2.0 0.04 0.35 0.35 95 1008.0
20260505210552 51 185 0.0 3.0 0.04 0.35 0.35 95 1008.0
20260505210054 51 0 0.0 3.0 0.04 0.34 0.34 95 1008.0
20260505205557 51 0 0.0 3.0 0.04 0.34 0.34 95 1008.0
20260505205057 51 0 0.0 1.0 0.05 0.34 0.34 95 1008.1
20260505204601 51 0 0.0 2.0 0.04 0.33 0.33 95 1008.0
20260505204056 51 247 0.0 2.0 0.04 0.33 0.33 95 1008.1
20260505203556 51 0 0.0 4.0 0.04 0.33 0.33 95 1008.1
20260505203101 51 171 0.0 4.0 0.05 0.33 0.33 95 1008.2
20260505202556 51 158 1.0 4.0 0.05 0.33 0.33 95 1008.1
20260505202056 51 0 0.0 2.0 0.05 0.32 0.32 95 1008.1
20260505201554 51 0 0.0 2.0 0.04 0.31 0.31 95 1008.1
20260505201056 51 218 0.0 1.0 0.04 0.30 0.30 95 1008.2
20260505200556 51 0 0.0 1.0 0.05 0.30 0.30 95 1008.0
20260505200054 51 176 0.0 1.0 0.04 0.29 0.29 95 1008.0
20260505195558 51 146 0.0 2.0 0.05 0.29 0.29 95 1008.0
20260505195056 51 0 0.0 2.0 0.05 0.29 0.29 95 1007.9
20260505194616 51 161 0.0 3.0 0.06 0.29 0.29 95 1007.9
20260505194056 51 196 0.0 3.0 0.07 0.29 0.29 95 1008.0
20260505193557 51 167 0.0 1.0 0.07 0.28 0.28 95 1007.9
20260505193103 51 0 0.0 1.0 0.07 0.27 0.27 95 1007.9
20260505192556 51 0 0.0 2.0 0.07 0.27 0.27 95 1007.8
20260505192052 51 0 0.0 2.0 0.07 0.26 0.26 95 1007.9
20260505191607 52 0 0.0 1.0 0.07 0.26 0.26 95 1007.7
20260505191059 52 0 0.0 2.0 0.07 0.25 0.25 95 1007.9
20260505190556 52 0 0.0 2.0 0.07 0.25 0.25 95 1007.9
20260505190055 52 164 0.0 3.0 0.07 0.25 0.25 95 1007.8
20260505185556 52 191 0.0 3.0 0.07 0.24 0.24 95 1007.7
20260505185057 52 0 0.0 3.0 0.07 0.23 0.23 94 1007.8
20260505184555 52 284 0.0 3.0 0.07 0.22 0.22 95 1007.7
20260505184057 52 0 0.0 3.0 0.07 0.22 0.22 95 1007.8
20260505183556 52 0 1.0 3.0 0.07 0.21 0.21 94 1007.8
20260505183057 52 148 0.0 2.0 0.06 0.20 0.20 94 1007.7
20260505182557 52 0 0.0 2.0 0.07 0.20 0.20 94 1007.7
20260505182100 52 0 0.0 3.0 0.06 0.19 0.19 94 1007.7
20260505181556 52 146 0.0 3.0 0.06 0.18 0.18 94 1007.7
20260505181058 53 145 0.0 2.0 0.06 0.18 0.18 94 1007.8
20260505180552 53 165 0.0 2.0 0.06 0.18 0.18 94 1007.7
20260505180057 53 0 0.0 2.0 0.07 0.18 0.18 94 1007.7
20260505175555 53 0 0.0 2.0 0.06 0.18 0.17 94 1007.7
20260505175056 53 0 0.0 2.0 0.06 0.17 0.16 94 1007.8
20260505174556 53 0 0.0 1.0 0.04 0.15 0.14 94 1007.8
20260505174056 53 155 0.0 1.0 0.04 0.14 0.14 94 1007.8
20260505173557 53 0 0.0 2.0 0.05 0.14 0.14 94 1007.8
20260505173112 53 49 0.0 2.0 0.05 0.14 0.14 94 1007.8
20260505172556 53 0 0.0 2.0 0.05 0.14 0.13 94 1007.9
20260505172056 53 266 0.0 6.0 0.06 0.14 0.13 94 1007.8
20260505171620 53 0 1.0 6.0 0.06 0.13 0.12 93 1007.8
20260505171056 54 158 1.0 4.0 0.07 0.13 0.12 93 1007.8
20260505170555 54 0 0.0 4.0 0.07 0.12 0.11 93 1007.9
20260505170055 54 152 1.0 3.0 0.07 0.11 0.11 93 1007.8
20260505165557 54 0 0.0 2.0 0.07 0.14 0.11 93 1007.8
20260505165053 54 162 0.0 3.0 0.07 0.14 0.10 93 1008.0
20260505164601 54 116 0.0 3.0 0.07 0.13 0.09 93 1007.9
20260505164054 54 0 0.0 2.0 0.08 0.13 0.09 93 1007.8
20260505163553 54 174 0.0 5.0 0.08 0.12 0.08 93 1007.9
20260505163055 54 203 0.0 5.0 0.08 0.12 0.08 93 1007.8
20260505162554 55 172 0.0 3.0 0.07 0.11 0.07 92 1007.9
20260505162056 55 189 0.0 3.0 0.07 0.11 0.07 92 1007.9
20260505161557 55 0 0.0 3.0 0.06 0.10 0.06 92 1008.1
20260505161053 55 184 0.0 3.0 0.05 0.09 0.05 92 1008.0
20260505160555 55 156 0.0 3.0 0.04 0.08 0.04 91 1008.0
20260505153056 56 241 0.0 3.0 0.00 0.08 0.00 89 1008.1
20260505152554 56 0 1.0 3.0 0.00 0.08 0.00 88 1008.1
20260505152055 57 168 0.0 2.0 0.00 0.08 0.00 88 1008.1
20260505151555 57 136 0.0 2.0 0.00 0.08 0.00 88 1008.1
20260505151054 57 0 0.0 2.0 0.00 0.08 0.00 88 1008.0
20260505150553 57 266 0.0 2.0 0.00 0.08 0.00 88 1008.1
20260505150111 57 276 0.0 2.0 0.00 0.08 0.00 87 1008.2
20260505140556 59 116 0.0 4.0 0.00 0.11 0.00 86 1008.1
20260505124558 64 0 0.0 2.0 0.00 0.20 0.00 76 1008.7
20260505124056 64 219 0.0 2.0 0.00 0.20 0.00 77 1008.8
20260505123557 63 0 0.0 1.0 0.00 0.20 0.00 78 1008.6
20260505123100 63 198 0.0 1.0 0.00 0.20 0.00 79 1008.7
20260505122555 63 205 0.0 1.0 0.00 0.20 0.00 78 1008.8
20260505122054 63 0 0.0 1.0 0.00 0.20 0.00 78 1008.8
20260505121624 62 210 0.0 1.0 0.00 0.20 0.00 78 1008.8
20260505121054 62 0 0.0 1.0 0.00 0.20 0.00 79 1008.8
20260505120554 62 0 0.0 1.0 0.00 0.20 0.00 78 1008.9
20260505120053 62 0 0.0 1.0 0.00 0.20 0.00 79 1009.0
20260505115553 62 0 0.0 1.0 0.00 0.20 0.00 80 1009.0
20260505115056 62 0 0.0 1.0 0.00 0.20 0.00 81 1009.0
20260505114555 61 0 0.0 1.0 0.00 0.20 0.00 80 1009.1
20260505114056 61 0 0.0 1.0 0.00 0.20 0.00 80 1009.1
20260505113557 61 0 0.0 1.0 0.00 0.20 0.00 80 1009.2
20260505113059 61 0 0.0 1.0 0.00 0.20 0.00 80 1009.4
20260505112556 61 212 0.0 1.0 0.00 0.20 0.00 79 1009.2
20260505112053 62 0 0.0 1.0 0.00 0.20 0.00 78 1009.3
20260505111556 62 0 0.0 1.0 0.00 0.20 0.00 79 1009.4
20260505111055 62 0 0.0 1.0 0.00 0.20 0.00 79 1009.3
20260505110557 62 219 0.0 1.0 0.00 0.20 0.00 79 1009.1
20260505102055 63 211 0.0 1.0 0.00 0.20 0.00 78 1009.5
20260505101557 63 217 0.0 1.0 0.00 0.20 0.00 80 1009.6
20260505101056 62 0 0.0 1.0 0.00 0.20 0.00 83 1009.5
20260505100556 62 0 0.0 1.0 0.00 0.20 0.00 81 1009.6
20260505100136 62 0 0.0 0.0 0.00 0.20 0.00 83 1009.7
20260505095558 61 0 0.0 0.0 0.00 0.20 0.00 83 1009.6
20260505095056 61 178 0.0 0.0 0.00 0.20 0.00 84 1009.6
20260505094554 61 178 0.0 0.0 0.00 0.20 0.00 84 1009.6
20260505094052 61 0 0.0 0.0 0.00 0.20 0.00 84 1009.6
20260505093556 60 0 0.0 0.0 0.00 0.20 0.00 83 1009.7
20260505093054 60 0 0.0 0.0 0.00 0.20 0.00 83 1009.6
20260505092554 60 0 0.0 0.0 0.00 0.20 0.00 83 1009.7
20260505092055 60 0 0.0 0.0 0.00 0.20 0.00 83 1009.8
20260505091616 60 0 0.0 0.0 0.00 0.20 0.00 84 1009.8
20260505091055 59 0 0.0 2.0 0.00 0.20 0.00 84 1009.8
20260505090555 59 0 0.0 2.0 0.00 0.20 0.00 84 1009.8
20260505090101 59 203 0.0 1.0 0.00 0.20 0.00 83 1009.8
20260505085555 59 0 0.0 1.0 0.00 0.20 0.00 84 1009.8
20260505085059 59 0 0.0 1.0 0.00 0.20 0.00 84 1009.8
20260505084553 59 0 0.0 0.0 0.00 0.20 0.00 84 1009.8
20260505084056 59 0 0.0 1.0 0.00 0.20 0.00 83 1009.9
20260505083556 59 0 0.0 1.0 0.00 0.20 0.00 84 1009.7
20260505083056 59 0 0.0 1.0 0.00 0.20 0.00 83 1009.8
20260505082553 59 0 0.0 1.0 0.00 0.20 0.00 84 1009.8
20260505082054 59 0 0.0 1.0 0.00 0.20 0.00 85 1009.8
20260505081554 59 208 0.0 1.0 0.00 0.20 0.00 86 1009.8
20260505081056 58 0 0.0 1.0 0.00 0.20 0.00 86 1009.9
20260505080556 58 0 0.0 0.0 0.00 0.20 0.00 88 1009.9
20260505080054 58 0 0.0 0.0 0.00 0.20 0.00 88 1009.9
20260505075556 57 0 0.0 0.0 0.00 0.20 0.00 87 1010.0
20260505075055 57 0 0.0 0.0 0.00 0.20 0.00 88 1010.0
20260505074553 57 0 0.0 0.0 0.00 0.20 0.00 89 1010.0
20260505074058 57 0 0.0 0.0 0.00 0.20 0.00 90 1010.0
20260505073554 57 0 0.0 0.0 0.00 0.20 0.00 91 1010.0
20260505073101 57 0 0.0 0.0 0.00 0.20 0.00 91 1010.0
20260505072555 57 0 0.0 0.0 0.00 0.20 0.00 90 1010.1
20260505072056 57 0 0.0 1.0 0.00 0.20 0.00 91 1010.1
20260505071556 56 0 0.0 1.0 0.00 0.20 0.00 91 1010.1
20260505071054 56 0 0.0 1.0 0.00 0.20 0.00 91 1010.2
20260505070558 56 0 0.0 0.0 0.00 0.20 0.00 91 1010.1
20260505070057 56 0 0.0 1.0 0.00 0.20 0.00 91 1010.2
20260505065557 56 0 0.0 1.0 0.00 0.20 0.00 92 1010.2
20260505065057 56 0 0.0 1.0 0.00 0.20 0.00 92 1010.2
20260505064607 56 0 0.0 1.0 0.00 0.20 0.00 92 1010.3
20260505064059 56 193 0.0 0.0 0.00 0.20 0.00 93 1010.2
20260505063558 56 0 0.0 0.0 0.00 0.20 0.00 93 1010.3
20260505063057 55 146 0.0 0.0 0.00 0.20 0.00 93 1010.2
20260505062558 55 0 0.0 0.0 0.00 0.20 0.00 93 1010.3
20260505062055 55 0 0.0 0.0 0.00 0.20 0.00 93 1010.4
20260505061556 55 0 0.0 0.0 0.00 0.20 0.00 93 1010.3
20260505061057 55 0 0.0 0.0 0.00 0.20 0.00 93 1010.3
20260505060556 55 0 0.0 0.0 0.00 0.20 0.00 93 1010.3
20260505060058 55 0 0.0 0.0 0.00 0.20 0.00 93 1010.3
20260505055557 55 0 0.0 0.0 0.00 0.20 0.00 93 1010.3
20260505055058 55 0 0.0 0.0 0.00 0.20 0.00 93 1010.2
20260505054620 55 0 0.0 0.0 0.00 0.20 0.00 93 1010.3